| time (UTC) | temp F | wind direction | speed MPH | gust MPH | rain 1hr in | rain 24hr in | rain mn in | humidity % | barometer mb |
| 20260831181559 | 0 | 106 | 2.0 | 8.0 | 0.00 | 0.00 | 0.00 | 1019.9 | |
| 20260831180054 | 0 | 107 | 1.0 | 4.0 | 0.00 | 0.00 | 0.00 | 1020.1 | |
| 20260831174555 | 0 | 107 | 2.0 | 6.0 | 0.00 | 0.00 | 0.00 | 1020.2 | |
| 20260831173058 | 0 | 105 | 2.0 | 4.0 | 0.00 | 0.00 | 0.00 | 1020.1 | |
| 20260831171546 | 0 | 107 | 3.0 | 8.0 | 0.00 | 0.00 | 0.00 | 1020.3 | |
| 20260831170052 | 0 | 107 | 0.0 | 7.0 | 0.00 | 0.00 | 0.00 | 1020.4 | |
| 20260831164547 | 0 | 107 | 2.0 | 4.0 | 0.00 | 0.00 | 0.00 | 1020.4 | |
| 20260831163050 | 0 | 107 | 4.0 | 8.0 | 0.00 | 0.00 | 0.00 | 1020.6 | |
| 20260831161541 | 0 | 105 | 0.0 | 6.0 | 0.00 | 0.00 | 0.00 | 1020.8 | |
| 20260831160037 | 0 | 105 | 0.0 | 2.0 | 0.00 | 0.00 | 0.00 | 1021.0 | |
| 20260831154534 | 0 | 105 | 2.0 | 6.0 | 0.00 | 0.00 | 0.00 | 1021.0 | |
| 20260831153027 | 0 | 105 | 1.0 | 8.0 | 0.00 | 0.00 | 0.00 | 1021.0 | |
| 20260831151523 | 0 | 111 | 1.0 | 4.0 | 0.00 | 0.00 | 0.00 | 1021.0 | |
| 20260831150018 | 0 | 111 | 0.0 | 2.0 | 0.00 | 0.00 | 0.00 | 1021.0 | |
| 20260831144525 | 0 | 111 | 3.0 | 6.0 | 0.00 | 0.00 | 0.00 | 1021.0 | |
| 20260831143010 | 0 | 111 | 2.0 | 6.0 | 0.00 | 0.00 | 0.00 | 1021.0 | |
| 20260831141505 | 0 | 111 | 0.0 | 1.0 | 0.00 | 0.00 | 0.00 | 1020.9 | |
| 20260831140002 | 0 | 111 | 0.0 | 1.0 | 0.00 | 0.00 | 0.00 | 1021.0 | |
| 20260831134601 | 0 | 111 | 0.0 | 1.0 | 0.00 | 0.00 | 0.00 | 1020.9 | |
| 20260831133053 | 0 | 117 | 0.0 | 1.0 | 0.00 | 0.00 | 0.00 | 1020.8 | |
| 20260831131552 | 0 | 117 | 0.0 | 1.0 | 0.00 | 0.00 | 0.00 | 1020.8 | |
| 20260831130050 | 0 | 117 | 0.0 | 0.0 | 0.00 | 0.00 | 0.00 | 1020.7 | |
| 20260831124544 | 0 | 117 | 0.0 | 0.0 | 0.00 | 0.00 | 0.00 | 1020.6 | |
| 20260831123039 | 0 | 117 | 0.0 | 0.0 | 0.00 | 0.00 | 0.00 | 1020.7 | |
| 20260831121537 | 0 | 117 | 0.0 | 0.0 | 0.00 | 0.00 | 0.00 | 1020.8 | |
| 20260831120030 | 0 | 117 | 0.0 | 1.0 | 0.00 | 0.00 | 0.00 | 1020.7 | |
| 20260831114531 | 0 | 117 | 0.0 | 0.0 | 0.00 | 0.00 | 0.00 | 1020.5 | |
| 20260831113021 | 0 | 117 | 0.0 | 0.0 | 0.00 | 0.00 | 0.00 | 1020.4 | |
| 20260831111517 | 0 | 117 | 0.0 | 0.0 | 0.00 | 0.00 | 0.00 | 1020.4 | |
| 20260831110013 | 0 | 117 | 0.0 | 0.0 | 0.00 | 0.00 | 0.00 | 1020.3 | |
| 20260831104511 | 0 | 117 | 0.0 | 0.0 | 0.00 | 0.00 | 0.00 | 1020.2 | |
| 20260831103004 | 0 | 117 | 0.0 | 0.0 | 0.00 | 0.00 | 0.00 | 1020.3 | |
| 20260831101700 | 0 | 117 | 0.0 | 0.0 | 0.00 | 0.00 | 0.00 | 1020.0 | |
| 20260831094550 | 0 | 117 | 0.0 | 0.0 | 0.00 | 0.00 | 0.00 | 1020.0 | |
| 20260831093047 | 0 | 117 | 0.0 | 0.0 | 0.00 | 0.00 | 0.00 | 1020.0 | |
| 20260831091549 | 0 | 117 | 0.0 | 0.0 | 0.00 | 0.00 | 0.00 | 1020.0 | |
| 20260831090037 | 0 | 117 | 0.0 | 0.0 | 0.00 | 0.00 | 0.00 | 1020.0 | |
| 20260831084541 | 0 | 117 | 0.0 | 0.0 | 0.00 | 0.00 | 0.00 | 1019.8 | |
| 20260831083028 | 0 | 117 | 0.0 | 0.0 | 0.00 | 0.00 | 0.00 | 1019.8 | |
| 20260831081527 | 0 | 117 | 0.0 | 0.0 | 0.00 | 0.00 | 0.00 | 1019.6 | |
| 20260831080019 | 0 | 117 | 0.0 | 0.0 | 0.00 | 0.00 | 0.00 | 1019.6 | |
| 20260831074531 | 0 | 117 | 0.0 | 0.0 | 0.00 | 0.00 | 0.00 | 1019.5 | |
| 20260831073020 | 0 | 117 | 0.0 | 0.0 | 0.00 | 0.00 | 0.00 | 1019.4 | |
| 20260831071505 | 0 | 117 | 0.0 | 0.0 | 0.00 | 0.00 | 0.00 | 1019.3 | |
| 20260831070002 | 0 | 117 | 0.0 | 0.0 | 0.00 | 0.00 | 0.00 | 1019.4 | |
| 20260831064607 | 0 | 117 | 0.0 | 0.0 | 0.00 | 0.00 | 0.00 | 1019.5 | |
| 20260831063056 | 0 | 117 | 0.0 | 0.0 | 0.00 | 0.00 | 0.00 | 1019.6 | |
| 20260831061551 | 0 | 117 | 0.0 | 0.0 | 0.00 | 0.00 | 0.00 | 1019.7 | |
| 20260831060059 | 0 | 117 | 0.0 | 0.0 | 0.00 | 0.00 | 0.00 | 1019.7 | |
| 20260831054541 | 0 | 117 | 0.0 | 0.0 | 0.00 | 0.00 | 0.00 | 1019.9 | |
| 20260831053038 | 0 | 117 | 0.0 | 0.0 | 0.00 | 0.00 | 0.00 | 1020.0 | |
| 20260831051536 | 0 | 117 | 0.0 | 0.0 | 0.00 | 0.00 | 0.00 | 1020.1 | |
| 20260831050043 | 0 | 117 | 0.0 | 0.0 | 0.00 | 0.00 | 0.00 | 1020.0 | |
| 20260831044534 | 0 | 117 | 0.0 | 0.0 | 0.00 | 0.00 | 0.00 | 1020.1 | |
| 20260831043036 | 0 | 117 | 0.0 | 0.0 | 0.00 | 0.00 | 0.00 | 1020.1 | |
| 20260831041543 | 0 | 117 | 0.0 | 0.0 | 0.00 | 0.00 | 0.00 | 1020.2 | |
| 20260831040043 | 0 | 117 | 0.0 | 0.0 | 0.00 | 0.00 | 0.00 | 1020.2 | |
| 20260831034532 | 0 | 117 | 0.0 | 0.0 | 0.00 | 0.00 | 0.00 | 1020.1 | |
| 20260831033026 | 0 | 117 | 0.0 | 0.0 | 0.00 | 0.00 | 0.00 | 1020.1 | |
| 20260831031526 | 0 | 117 | 0.0 | 0.0 | 0.00 | 0.00 | 0.00 | 1020.2 | |
| 20260831030039 | 0 | 117 | 0.0 | 0.0 | 0.00 | 0.00 | 0.00 | 1020.1 | |
| 20260831024524 | 0 | 117 | 0.0 | 0.0 | 0.00 | 0.00 | 0.00 | 1020.2 | |
| 20260831023024 | 0 | 117 | 0.0 | 0.0 | 0.00 | 0.00 | 0.00 | 1020.1 | |
| 20260831021523 | 0 | 117 | 0.0 | 0.0 | 0.00 | 0.00 | 0.00 | 1020.2 | |
| 20260831020023 | 0 | 117 | 0.0 | 0.0 | 0.00 | 0.00 | 0.00 | 1020.1 | |
| 20260831014525 | 0 | 117 | 0.0 | 0.0 | 0.00 | 0.00 | 0.00 | 1020.0 | |
| 20260831013022 | 0 | 117 | 0.0 | 0.0 | 0.00 | 0.00 | 0.00 | 1020.0 | |
| 20260831011531 | 0 | 117 | 0.0 | 0.0 | 0.00 | 0.00 | 0.00 | 1019.7 | |
| 20260831010023 | 0 | 117 | 0.0 | 0.0 | 0.00 | 0.00 | 0.00 | 1019.6 | |
| 20260831004522 | 0 | 117 | 0.0 | 0.0 | 0.00 | 0.00 | 0.00 | 1019.5 | |
| 20260831003022 | 0 | 117 | 0.0 | 0.0 | 0.00 | 0.00 | 0.00 | 1019.4 | |
| 20260831001519 | 0 | 117 | 0.0 | 0.0 | 0.00 | 0.00 | 0.00 | 1019.4 | |
| 20260831000019 | 0 | 117 | 0.0 | 0.0 | 0.00 | 0.00 | 0.00 | 1019.3 | |
| 20260830234519 | 0 | 117 | 0.0 | 0.0 | 0.00 | 0.00 | 0.00 | 1019.1 | |
| 20260830233027 | 0 | 117 | 0.0 | 0.0 | 0.00 | 0.00 | 0.00 | 1019.2 | |
| 20260830231518 | 0 | 117 | 0.0 | 2.0 | 0.00 | 0.00 | 0.00 | 1019.1 | |
| 20260830230022 | 0 | 115 | 2.0 | 6.0 | 0.00 | 0.00 | 0.00 | 1019.1 | |
| 20260830224510 | 0 | 115 | 1.0 | 4.0 | 0.00 | 0.00 | 0.00 | 1018.9 | |
| 20260830223007 | 0 | 115 | 2.0 | 6.0 | 0.00 | 0.00 | 0.00 | 1018.8 | |
| 20260830221502 | 0 | 115 | 0.0 | 4.0 | 0.00 | 0.00 | 0.00 | 1018.8 | |
| 20260830220104 | 0 | 115 | 1.0 | 8.0 | 0.00 | 0.00 | 0.00 | 1018.8 | |
| 20260830214552 | 0 | 115 | 2.0 | 9.0 | 0.00 | 0.00 | 0.00 | 1018.9 | |
| 20260830213049 | 0 | 113 | 3.0 | 7.0 | 0.00 | 0.00 | 0.00 | 1018.9 | |
| 20260830211549 | 0 | 113 | 3.0 | 7.0 | 0.00 | 0.00 | 0.00 | 1018.8 | |
| 20260830210040 | 0 | 113 | 3.0 | 9.0 | 0.00 | 0.00 | 0.00 | 1018.9 | |
| 20260830204549 | 0 | 113 | 3.0 | 8.0 | 0.00 | 0.00 | 0.00 | 1019.1 | |
| 20260830203030 | 0 | 112 | 1.0 | 4.0 | 0.00 | 0.00 | 0.00 | 1019.2 | |
| 20260830201526 | 0 | 112 | 1.0 | 8.0 | 0.00 | 0.00 | 0.00 | 1019.4 | |
| 20260830200033 | 0 | 110 | 2.0 | 6.0 | 0.00 | 0.00 | 0.00 | 1019.5 | |
| 20260830194517 | 0 | 77 | 2.0 | 5.0 | 0.00 | 0.00 | 0.00 | 1019.6 | |
| 20260830193013 | 0 | 77 | 2.0 | 9.0 | 0.00 | 0.00 | 0.00 | 1019.8 | |
| 20260830191528 | 0 | 78 | 2.0 | 8.0 | 0.00 | 0.00 | 0.00 | 1020.1 | |
| 20260830190004 | 0 | 77 | 1.0 | 4.0 | 0.00 | 0.00 | 0.00 | 1020.1 | |
| 20260830184600 | 0 | 77 | 1.0 | 11.0 | 0.00 | 0.00 | 0.00 | 1020.3 | |
| 20260830183055 | 0 | 80 | 3.0 | 6.0 | 0.00 | 0.00 | 0.00 | 1020.6 |